owner,sensor,date,latitude,longitude,air_pressure(mBar),qcFlag 
WAVCIS,ioos:station:WAVCIS:CSI09:1,2012-02-01T00:00:00Z,29.1015,-89.9782,1021.34,11111222 
WAVCIS,ioos:station:WAVCIS:CSI09:1,2012-02-01T01:00:00Z,29.1015,-89.9782,1021.71,11111222 
WAVCIS,ioos:station:WAVCIS:CSI09:1,2012-02-01T02:00:00Z,29.1015,-89.9782,1022.01,11111222 
WAVCIS,ioos:station:WAVCIS:CSI09:1,2012-02-01T03:00:00Z,29.1015,-89.9782,1022.14,11111222 
WAVCIS,ioos:station:WAVCIS:CSI09:1,2012-02-01T04:00:00Z,29.1015,-89.9782,1022.24,11111222 
WAVCIS,ioos:station:WAVCIS:CSI09:1,2012-02-01T05:00:00Z,29.1015,-89.9782,1022.37,11111222 
WAVCIS,ioos:station:WAVCIS:CSI09:1,2012-02-01T06:00:00Z,29.1015,-89.9782,1021.69,11111222 
WAVCIS,ioos:station:WAVCIS:CSI09:1,2012-02-01T07:00:00Z,29.1015,-89.9782,1021.01,11111222 
WAVCIS,ioos:station:WAVCIS:CSI09:1,2012-02-01T08:00:00Z,29.1015,-89.9782,1020.64,11111222 
WAVCIS,ioos:station:WAVCIS:CSI09:1,2012-02-01T09:00:00Z,29.1015,-89.9782,1020.35,11111222 
WAVCIS,ioos:station:WAVCIS:CSI09:1,2012-02-01T10:00:00Z,29.1015,-89.9782,1020.21,11111222 
WAVCIS,ioos:station:WAVCIS:CSI09:1,2012-02-01T11:00:00Z,29.1015,-89.9782,1020.41,11111222 
WAVCIS,ioos:station:WAVCIS:CSI09:1,2012-02-01T12:00:00Z,29.1015,-89.9782,1020.33,11111222 
WAVCIS,ioos:station:WAVCIS:CSI09:1,2012-02-01T13:00:00Z,29.1015,-89.9782,1020.6,11111222 
WAVCIS,ioos:station:WAVCIS:CSI09:1,2012-02-01T14:00:00Z,29.1015,-89.9782,1021.02,11111222 
WAVCIS,ioos:station:WAVCIS:CSI09:1,2012-02-01T15:00:00Z,29.1015,-89.9782,1021.22,11111222 
WAVCIS,ioos:station:WAVCIS:CSI09:1,2012-02-01T16:00:00Z,29.1015,-89.9782,1021.64,11111222 
WAVCIS,ioos:station:WAVCIS:CSI09:1,2012-02-01T17:00:00Z,29.1015,-89.9782,1021.0,11111222 
WAVCIS,ioos:station:WAVCIS:CSI09:1,2012-02-01T18:00:00Z,29.1015,-89.9782,1020.53,11111222 
WAVCIS,ioos:station:WAVCIS:CSI09:1,2012-02-01T19:00:00Z,29.1015,-89.9782,1019.92,11111222 
WAVCIS,ioos:station:WAVCIS:CSI09:1,2012-02-01T20:00:00Z,29.1015,-89.9782,1019.22,11111222 
WAVCIS,ioos:station:WAVCIS:CSI09:1,2012-02-01T21:00:00Z,29.1015,-89.9782,1018.21,11111222 
WAVCIS,ioos:station:WAVCIS:CSI09:1,2012-02-01T22:00:00Z,29.1015,-89.9782,1018.28,11111222 
WAVCIS,ioos:station:WAVCIS:CSI09:1,2012-02-01T23:00:00Z,29.1015,-89.9782,1018.84,11111222 
WAVCIS,ioos:station:WAVCIS:CSI09:1,2012-02-02T00:00:00Z,29.1015,-89.9782,1019.5,11111222 
WAVCIS,ioos:station:WAVCIS:CSI09:1,2012-02-02T01:00:00Z,29.1015,-89.9782,1019.89,11111222 
WAVCIS,ioos:station:WAVCIS:CSI09:1,2012-02-02T02:00:00Z,29.1015,-89.9782,1020.09,11111222 
WAVCIS,ioos:station:WAVCIS:CSI09:1,2012-02-02T03:00:00Z,29.1015,-89.9782,1020.32,11111222 
WAVCIS,ioos:station:WAVCIS:CSI09:1,2012-02-02T04:00:00Z,29.1015,-89.9782,1020.63,11111222 
WAVCIS,ioos:station:WAVCIS:CSI09:1,2012-02-02T05:00:00Z,29.1015,-89.9782,1020.71,11111222 
WAVCIS,ioos:station:WAVCIS:CSI09:1,2012-02-02T06:00:00Z,29.1015,-89.9782,1020.2,11111222 
WAVCIS,ioos:station:WAVCIS:CSI09:1,2012-02-02T07:00:00Z,29.1015,-89.9782,1019.69,11111222 
WAVCIS,ioos:station:WAVCIS:CSI09:1,2012-02-02T08:00:00Z,29.1015,-89.9782,1019.32,11111222 
WAVCIS,ioos:station:WAVCIS:CSI09:1,2012-02-02T09:00:00Z,29.1015,-89.9782,1019.38,11111222 
WAVCIS,ioos:station:WAVCIS:CSI09:1,2012-02-02T10:00:00Z,29.1015,-89.9782,1019.5,11111222 
WAVCIS,ioos:station:WAVCIS:CSI09:1,2012-02-02T11:00:00Z,29.1015,-89.9782,1019.59,11111222 
WAVCIS,ioos:station:WAVCIS:CSI09:1,2012-02-02T12:00:00Z,29.1015,-89.9782,1019.85,11111222 
WAVCIS,ioos:station:WAVCIS:CSI09:1,2012-02-02T13:00:00Z,29.1015,-89.9782,1020.2,11111222 
WAVCIS,ioos:station:WAVCIS:CSI09:1,2012-02-02T14:00:00Z,29.1015,-89.9782,1020.61,11111222 
WAVCIS,ioos:station:WAVCIS:CSI09:1,2012-02-02T15:00:00Z,29.1015,-89.9782,1020.91,11111222 
WAVCIS,ioos:station:WAVCIS:CSI09:1,2012-02-02T16:00:00Z,29.1015,-89.9782,1021.16,11111222 
WAVCIS,ioos:station:WAVCIS:CSI09:1,2012-02-02T17:00:00Z,29.1015,-89.9782,1020.94,11111222 
WAVCIS,ioos:station:WAVCIS:CSI09:1,2012-02-02T18:00:00Z,29.1015,-89.9782,1020.19,11111222 
WAVCIS,ioos:station:WAVCIS:CSI09:1,2012-02-02T19:00:00Z,29.1015,-89.9782,1019.42,11111222 
WAVCIS,ioos:station:WAVCIS:CSI09:1,2012-02-02T20:00:00Z,29.1015,-89.9782,1018.59,11111222 
WAVCIS,ioos:station:WAVCIS:CSI09:1,2012-02-02T21:00:00Z,29.1015,-89.9782,1018.52,11111222 
WAVCIS,ioos:station:WAVCIS:CSI09:1,2012-02-02T22:00:00Z,29.1015,-89.9782,1018.76,11111222 
WAVCIS,ioos:station:WAVCIS:CSI09:1,2012-02-02T23:00:00Z,29.1015,-89.9782,1018.56,11111222 
WAVCIS,ioos:station:WAVCIS:CSI09:1,2012-02-03T00:00:00Z,29.1015,-89.9782,1018.86,11111222 
WAVCIS,ioos:station:WAVCIS:CSI09:1,2012-02-03T01:00:00Z,29.1015,-89.9782,1019.24,11111222 
WAVCIS,ioos:station:WAVCIS:CSI09:1,2012-02-03T02:00:00Z,29.1015,-89.9782,1019.56,11111222 
WAVCIS,ioos:station:WAVCIS:CSI09:1,2012-02-03T03:00:00Z,29.1015,-89.9782,1020.1,11111222 
WAVCIS,ioos:station:WAVCIS:CSI09:1,2012-02-03T04:00:00Z,29.1015,-89.9782,1020.11,11111222 
WAVCIS,ioos:station:WAVCIS:CSI09:1,2012-02-03T05:00:00Z,29.1015,-89.9782,1019.97,11111222 
WAVCIS,ioos:station:WAVCIS:CSI09:1,2012-02-03T06:00:00Z,29.1015,-89.9782,1019.74,11111222 
WAVCIS,ioos:station:WAVCIS:CSI09:1,2012-02-03T07:00:00Z,29.1015,-89.9782,1019.14,11111222 
WAVCIS,ioos:station:WAVCIS:CSI09:1,2012-02-03T08:00:00Z,29.1015,-89.9782,1018.7,11111222 
WAVCIS,ioos:station:WAVCIS:CSI09:1,2012-02-03T09:00:00Z,29.1015,-89.9782,1018.57,11111222 
WAVCIS,ioos:station:WAVCIS:CSI09:1,2012-02-03T10:00:00Z,29.1015,-89.9782,1018.44,11111222 
WAVCIS,ioos:station:WAVCIS:CSI09:1,2012-02-03T11:00:00Z,29.1015,-89.9782,1017.82,11111222 
WAVCIS,ioos:station:WAVCIS:CSI09:1,2012-02-03T12:00:00Z,29.1015,-89.9782,1018.45,11111222 
WAVCIS,ioos:station:WAVCIS:CSI09:1,2012-02-03T13:00:00Z,29.1015,-89.9782,1018.91,11111222 
WAVCIS,ioos:station:WAVCIS:CSI09:1,2012-02-03T14:00:00Z,29.1015,-89.9782,1019.4,11111222 
WAVCIS,ioos:station:WAVCIS:CSI09:1,2012-02-03T15:00:00Z,29.1015,-89.9782,1019.86,11111222 
WAVCIS,ioos:station:WAVCIS:CSI09:1,2012-02-03T16:00:00Z,29.1015,-89.9782,1020.43,11111222 
WAVCIS,ioos:station:WAVCIS:CSI09:1,2012-02-03T17:00:00Z,29.1015,-89.9782,1020.8,11111222 
WAVCIS,ioos:station:WAVCIS:CSI09:1,2012-02-03T18:00:00Z,29.1015,-89.9782,1020.36,11111222 
WAVCIS,ioos:station:WAVCIS:CSI09:1,2012-02-03T19:00:00Z,29.1015,-89.9782,1019.35,11111222 
WAVCIS,ioos:station:WAVCIS:CSI09:1,2012-02-03T20:00:00Z,29.1015,-89.9782,1018.69,11111222 
WAVCIS,ioos:station:WAVCIS:CSI09:1,2012-02-03T21:00:00Z,29.1015,-89.9782,1018.32,11111222 
WAVCIS,ioos:station:WAVCIS:CSI09:1,2012-02-03T22:00:00Z,29.1015,-89.9782,1018.29,11111222 
WAVCIS,ioos:station:WAVCIS:CSI09:1,2012-02-03T23:00:00Z,29.1015,-89.9782,1018.62,11111222 
WAVCIS,ioos:station:WAVCIS:CSI09:1,2012-02-04T00:00:00Z,29.1015,-89.9782,1018.71,11111222 
WAVCIS,ioos:station:WAVCIS:CSI09:1,2012-02-04T01:00:00Z,29.1015,-89.9782,1018.99,11111222 
WAVCIS,ioos:station:WAVCIS:CSI09:1,2012-02-04T02:00:00Z,29.1015,-89.9782,1019.12,11111222 
WAVCIS,ioos:station:WAVCIS:CSI09:1,2012-02-04T03:00:00Z,29.1015,-89.9782,1019.11,11111222 
WAVCIS,ioos:station:WAVCIS:CSI09:1,2012-02-04T04:00:00Z,29.1015,-89.9782,1019.08,11111222 
WAVCIS,ioos:station:WAVCIS:CSI09:1,2012-02-04T05:00:00Z,29.1015,-89.9782,1019.12,11111222 
WAVCIS,ioos:station:WAVCIS:CSI09:1,2012-02-04T06:00:00Z,29.1015,-89.9782,1018.6,11111222 
WAVCIS,ioos:station:WAVCIS:CSI09:1,2012-02-04T07:00:00Z,29.1015,-89.9782,1018.43,11111222 
WAVCIS,ioos:station:WAVCIS:CSI09:1,2012-02-04T08:00:00Z,29.1015,-89.9782,1017.8,11111222 
WAVCIS,ioos:station:WAVCIS:CSI09:1,2012-02-04T09:00:00Z,29.1015,-89.9782,1017.98,11111222 
WAVCIS,ioos:station:WAVCIS:CSI09:1,2012-02-04T10:00:00Z,29.1015,-89.9782,1018.16,11111222 
WAVCIS,ioos:station:WAVCIS:CSI09:1,2012-02-04T11:00:00Z,29.1015,-89.9782,1018.28,11111222 
WAVCIS,ioos:station:WAVCIS:CSI09:1,2012-02-04T12:00:00Z,29.1015,-89.9782,1018.12,11111222 
WAVCIS,ioos:station:WAVCIS:CSI09:1,2012-02-04T13:00:00Z,29.1015,-89.9782,1018.18,11111222 
WAVCIS,ioos:station:WAVCIS:CSI09:1,2012-02-04T14:00:00Z,29.1015,-89.9782,1018.63,11111222 
WAVCIS,ioos:station:WAVCIS:CSI09:1,2012-02-04T15:00:00Z,29.1015,-89.9782,1018.71,11111222 
WAVCIS,ioos:station:WAVCIS:CSI09:1,2012-02-04T16:00:00Z,29.1015,-89.9782,1019.16,11111222 
WAVCIS,ioos:station:WAVCIS:CSI09:1,2012-02-04T17:00:00Z,29.1015,-89.9782,1019.36,11111222 
WAVCIS,ioos:station:WAVCIS:CSI09:1,2012-02-04T18:00:00Z,29.1015,-89.9782,1019.0,11111222 
WAVCIS,ioos:station:WAVCIS:CSI09:1,2012-02-04T19:00:00Z,29.1015,-89.9782,1017.92,11111222 
WAVCIS,ioos:station:WAVCIS:CSI09:1,2012-02-04T20:00:00Z,29.1015,-89.9782,1017.55,11111222 
WAVCIS,ioos:station:WAVCIS:CSI09:1,2012-02-04T21:00:00Z,29.1015,-89.9782,1016.97,11111222 
WAVCIS,ioos:station:WAVCIS:CSI09:1,2012-02-04T22:00:00Z,29.1015,-89.9782,1017.37,11111222 
WAVCIS,ioos:station:WAVCIS:CSI09:1,2012-02-04T23:00:00Z,29.1015,-89.9782,1017.74,11111222 
WAVCIS,ioos:station:WAVCIS:CSI09:1,2012-02-05T00:00:00Z,29.1015,-89.9782,1018.45,11111222 
WAVCIS,ioos:station:WAVCIS:CSI09:1,2012-02-05T01:00:00Z,29.1015,-89.9782,1018.15,11111222 
WAVCIS,ioos:station:WAVCIS:CSI09:1,2012-02-05T02:00:00Z,29.1015,-89.9782,1018.57,11111222 
WAVCIS,ioos:station:WAVCIS:CSI09:1,2012-02-05T03:00:00Z,29.1015,-89.9782,1018.51,11111222 
WAVCIS,ioos:station:WAVCIS:CSI09:1,2012-02-05T04:00:00Z,29.1015,-89.9782,1018.27,11111222 
WAVCIS,ioos:station:WAVCIS:CSI09:1,2012-02-05T05:00:00Z,29.1015,-89.9782,1018.37,11111222 
WAVCIS,ioos:station:WAVCIS:CSI09:1,2012-02-05T06:00:00Z,29.1015,-89.9782,1017.91,11111222 
WAVCIS,ioos:station:WAVCIS:CSI09:1,2012-02-05T07:00:00Z,29.1015,-89.9782,1017.87,11111222 
WAVCIS,ioos:station:WAVCIS:CSI09:1,2012-02-05T08:00:00Z,29.1015,-89.9782,1017.68,11111222 
WAVCIS,ioos:station:WAVCIS:CSI09:1,2012-02-05T09:00:00Z,29.1015,-89.9782,1017.14,11111222 
WAVCIS,ioos:station:WAVCIS:CSI09:1,2012-02-05T10:00:00Z,29.1015,-89.9782,1017.29,11111222 
WAVCIS,ioos:station:WAVCIS:CSI09:1,2012-02-05T11:00:00Z,29.1015,-89.9782,1017.33,11111222 
WAVCIS,ioos:station:WAVCIS:CSI09:1,2012-02-05T12:00:00Z,29.1015,-89.9782,1017.55,11111222 
WAVCIS,ioos:station:WAVCIS:CSI09:1,2012-02-05T13:00:00Z,29.1015,-89.9782,1018.37,11111222 
WAVCIS,ioos:station:WAVCIS:CSI09:1,2012-02-05T14:00:00Z,29.1015,-89.9782,1019.17,11111222 
WAVCIS,ioos:station:WAVCIS:CSI09:1,2012-02-05T15:00:00Z,29.1015,-89.9782,1020.04,11111222 
WAVCIS,ioos:station:WAVCIS:CSI09:1,2012-02-05T16:00:00Z,29.1015,-89.9782,1020.07,11111222 
WAVCIS,ioos:station:WAVCIS:CSI09:1,2012-02-05T17:00:00Z,29.1015,-89.9782,1020.13,11111222 
WAVCIS,ioos:station:WAVCIS:CSI09:1,2012-02-05T18:00:00Z,29.1015,-89.9782,1019.92,11111222 
WAVCIS,ioos:station:WAVCIS:CSI09:1,2012-02-05T19:00:00Z,29.1015,-89.9782,1019.19,11111222 
WAVCIS,ioos:station:WAVCIS:CSI09:1,2012-02-05T20:00:00Z,29.1015,-89.9782,1018.36,11111222 
WAVCIS,ioos:station:WAVCIS:CSI09:1,2012-02-05T21:00:00Z,29.1015,-89.9782,1017.97,11111222 
WAVCIS,ioos:station:WAVCIS:CSI09:1,2012-02-05T22:00:00Z,29.1015,-89.9782,1017.96,11111222 
WAVCIS,ioos:station:WAVCIS:CSI09:1,2012-02-05T23:00:00Z,29.1015,-89.9782,1018.39,11111222 
WAVCIS,ioos:station:WAVCIS:CSI09:1,2012-02-06T00:00:00Z,29.1015,-89.9782,1018.75,11111222 
WAVCIS,ioos:station:WAVCIS:CSI09:1,2012-02-06T01:00:00Z,29.1015,-89.9782,1019.21,11111222 
WAVCIS,ioos:station:WAVCIS:CSI09:1,2012-02-06T02:00:00Z,29.1015,-89.9782,1020.01,11111222 
WAVCIS,ioos:station:WAVCIS:CSI09:1,2012-02-06T03:00:00Z,29.1015,-89.9782,1020.53,11111222 
WAVCIS,ioos:station:WAVCIS:CSI09:1,2012-02-06T04:00:00Z,29.1015,-89.9782,1020.1,11111222 
WAVCIS,ioos:station:WAVCIS:CSI09:1,2012-02-06T05:00:00Z,29.1015,-89.9782,1020.21,11111222 
WAVCIS,ioos:station:WAVCIS:CSI09:1,2012-02-06T06:00:00Z,29.1015,-89.9782,1020.11,11111222 
WAVCIS,ioos:station:WAVCIS:CSI09:1,2012-02-06T07:00:00Z,29.1015,-89.9782,1020.33,11111222 
WAVCIS,ioos:station:WAVCIS:CSI09:1,2012-02-06T08:00:00Z,29.1015,-89.9782,1020.22,11111222 
WAVCIS,ioos:station:WAVCIS:CSI09:1,2012-02-06T09:00:00Z,29.1015,-89.9782,1019.96,11111222 
WAVCIS,ioos:station:WAVCIS:CSI09:1,2012-02-06T10:00:00Z,29.1015,-89.9782,1020.19,11111222 
WAVCIS,ioos:station:WAVCIS:CSI09:1,2012-02-06T11:00:00Z,29.1015,-89.9782,1019.96,11111222 
WAVCIS,ioos:station:WAVCIS:CSI09:1,2012-02-06T12:00:00Z,29.1015,-89.9782,1019.81,11111222 
WAVCIS,ioos:station:WAVCIS:CSI09:1,2012-02-06T13:00:00Z,29.1015,-89.9782,1020.8,11111222 
WAVCIS,ioos:station:WAVCIS:CSI09:1,2012-02-06T14:00:00Z,29.1015,-89.9782,1021.65,11111222 
WAVCIS,ioos:station:WAVCIS:CSI09:1,2012-02-06T15:00:00Z,29.1015,-89.9782,1022.09,11111222 
WAVCIS,ioos:station:WAVCIS:CSI09:1,2012-02-06T16:00:00Z,29.1015,-89.9782,1022.13,11111222 
WAVCIS,ioos:station:WAVCIS:CSI09:1,2012-02-06T17:00:00Z,29.1015,-89.9782,1021.97,11111222 
WAVCIS,ioos:station:WAVCIS:CSI09:1,2012-02-06T18:00:00Z,29.1015,-89.9782,1021.56,11111222 
WAVCIS,ioos:station:WAVCIS:CSI09:1,2012-02-06T19:00:00Z,29.1015,-89.9782,1020.93,11111222 
WAVCIS,ioos:station:WAVCIS:CSI09:1,2012-02-06T20:00:00Z,29.1015,-89.9782,1020.42,11111222 
WAVCIS,ioos:station:WAVCIS:CSI09:1,2012-02-06T21:00:00Z,29.1015,-89.9782,1020.22,11111222 
WAVCIS,ioos:station:WAVCIS:CSI09:1,2012-02-06T22:00:00Z,29.1015,-89.9782,1020.21,11111222 
WAVCIS,ioos:station:WAVCIS:CSI09:1,2012-02-06T23:00:00Z,29.1015,-89.9782,1019.72,11111222 
WAVCIS,ioos:station:WAVCIS:CSI09:1,2012-02-07T00:00:00Z,29.1015,-89.9782,1019.44,11111222 
WAVCIS,ioos:station:WAVCIS:CSI09:1,2012-02-07T01:00:00Z,29.1015,-89.9782,1019.54,11111222 
WAVCIS,ioos:station:WAVCIS:CSI09:1,2012-02-07T02:00:00Z,29.1015,-89.9782,1019.97,11111222 
WAVCIS,ioos:station:WAVCIS:CSI09:1,2012-02-07T03:00:00Z,29.1015,-89.9782,1020.18,11111222 
WAVCIS,ioos:station:WAVCIS:CSI09:1,2012-02-07T04:00:00Z,29.1015,-89.9782,1020.38,11111222 
WAVCIS,ioos:station:WAVCIS:CSI09:1,2012-02-07T05:00:00Z,29.1015,-89.9782,1020.25,11111222 
WAVCIS,ioos:station:WAVCIS:CSI09:1,2012-02-07T06:00:00Z,29.1015,-89.9782,1020.42,11111222 
WAVCIS,ioos:station:WAVCIS:CSI09:1,2012-02-07T07:00:00Z,29.1015,-89.9782,1020.42,11111222 
WAVCIS,ioos:station:WAVCIS:CSI09:1,2012-02-07T08:00:00Z,29.1015,-89.9782,1020.02,11111222 
WAVCIS,ioos:station:WAVCIS:CSI09:1,2012-02-07T09:00:00Z,29.1015,-89.9782,1020.1,11111222 
WAVCIS,ioos:station:WAVCIS:CSI09:1,2012-02-07T10:00:00Z,29.1015,-89.9782,1019.3,11111222 
WAVCIS,ioos:station:WAVCIS:CSI09:1,2012-02-07T11:00:00Z,29.1015,-89.9782,1018.88,11111222 
WAVCIS,ioos:station:WAVCIS:CSI09:1,2012-02-07T12:00:00Z,29.1015,-89.9782,1019.8,11111222 
WAVCIS,ioos:station:WAVCIS:CSI09:1,2012-02-07T13:00:00Z,29.1015,-89.9782,1020.19,11111222 
WAVCIS,ioos:station:WAVCIS:CSI09:1,2012-02-07T14:00:00Z,29.1015,-89.9782,1021.01,11111222 
WAVCIS,ioos:station:WAVCIS:CSI09:1,2012-02-07T15:00:00Z,29.1015,-89.9782,1021.44,11111222 
WAVCIS,ioos:station:WAVCIS:CSI09:1,2012-02-07T16:00:00Z,29.1015,-89.9782,1021.85,11111222 
WAVCIS,ioos:station:WAVCIS:CSI09:1,2012-02-07T17:00:00Z,29.1015,-89.9782,1021.39,11111222 
WAVCIS,ioos:station:WAVCIS:CSI09:1,2012-02-07T18:00:00Z,29.1015,-89.9782,1020.83,11111222 
WAVCIS,ioos:station:WAVCIS:CSI09:1,2012-02-07T19:00:00Z,29.1015,-89.9782,1020.2,11111222 
WAVCIS,ioos:station:WAVCIS:CSI09:1,2012-02-07T20:00:00Z,29.1015,-89.9782,1019.85,11111222 
WAVCIS,ioos:station:WAVCIS:CSI09:1,2012-02-07T21:00:00Z,29.1015,-89.9782,1019.19,11111222 
WAVCIS,ioos:station:WAVCIS:CSI09:1,2012-02-07T22:00:00Z,29.1015,-89.9782,1018.98,11111222 
WAVCIS,ioos:station:WAVCIS:CSI09:1,2012-02-07T23:00:00Z,29.1015,-89.9782,1019.64,11111222 
WAVCIS,ioos:station:WAVCIS:CSI09:1,2012-02-08T00:00:00Z,29.1015,-89.9782,1019.94,11111222 
WAVCIS,ioos:station:WAVCIS:CSI09:1,2012-02-08T01:00:00Z,29.1015,-89.9782,1020.19,11111222 
WAVCIS,ioos:station:WAVCIS:CSI09:1,2012-02-08T02:00:00Z,29.1015,-89.9782,1020.91,11111222 
WAVCIS,ioos:station:WAVCIS:CSI09:1,2012-02-08T03:00:00Z,29.1015,-89.9782,1021.26,11111222 
WAVCIS,ioos:station:WAVCIS:CSI09:1,2012-02-08T04:00:00Z,29.1015,-89.9782,1021.46,11111222 
WAVCIS,ioos:station:WAVCIS:CSI09:1,2012-02-08T05:00:00Z,29.1015,-89.9782,1021.79,11111222 
WAVCIS,ioos:station:WAVCIS:CSI09:1,2012-02-08T06:00:00Z,29.1015,-89.9782,1021.69,11111222 
WAVCIS,ioos:station:WAVCIS:CSI09:1,2012-02-08T07:00:00Z,29.1015,-89.9782,1021.64,11111222 
WAVCIS,ioos:station:WAVCIS:CSI09:1,2012-02-08T08:00:00Z,29.1015,-89.9782,1021.33,11111222 
WAVCIS,ioos:station:WAVCIS:CSI09:1,2012-02-08T09:00:00Z,29.1015,-89.9782,1021.81,11111222 
WAVCIS,ioos:station:WAVCIS:CSI09:1,2012-02-08T10:00:00Z,29.1015,-89.9782,1021.74,11111222 
WAVCIS,ioos:station:WAVCIS:CSI09:1,2012-02-08T11:00:00Z,29.1015,-89.9782,1021.9,11111222 
WAVCIS,ioos:station:WAVCIS:CSI09:1,2012-02-08T12:00:00Z,29.1015,-89.9782,1022.21,11111222 
WAVCIS,ioos:station:WAVCIS:CSI09:1,2012-02-08T13:00:00Z,29.1015,-89.9782,1022.83,11111222 
WAVCIS,ioos:station:WAVCIS:CSI09:1,2012-02-08T14:00:00Z,29.1015,-89.9782,1023.29,11111222 
WAVCIS,ioos:station:WAVCIS:CSI09:1,2012-02-08T15:00:00Z,29.1015,-89.9782,1023.73,11111222 
WAVCIS,ioos:station:WAVCIS:CSI09:1,2012-02-08T16:00:00Z,29.1015,-89.9782,1024.49,11111222 
WAVCIS,ioos:station:WAVCIS:CSI09:1,2012-02-08T17:00:00Z,29.1015,-89.9782,1024.61,11111222 
WAVCIS,ioos:station:WAVCIS:CSI09:1,2012-02-08T18:00:00Z,29.1015,-89.9782,1023.75,11111222 
WAVCIS,ioos:station:WAVCIS:CSI09:1,2012-02-08T19:00:00Z,29.1015,-89.9782,1022.97,11111222 
WAVCIS,ioos:station:WAVCIS:CSI09:1,2012-02-08T20:00:00Z,29.1015,-89.9782,1022.44,11111222 
WAVCIS,ioos:station:WAVCIS:CSI09:1,2012-02-08T21:00:00Z,29.1015,-89.9782,1022.36,11111222 
WAVCIS,ioos:station:WAVCIS:CSI09:1,2012-02-08T22:00:00Z,29.1015,-89.9782,1022.22,11111222 
WAVCIS,ioos:station:WAVCIS:CSI09:1,2012-02-08T23:00:00Z,29.1015,-89.9782,1022.04,11111222 
WAVCIS,ioos:station:WAVCIS:CSI09:1,2012-02-09T00:00:00Z,29.1015,-89.9782,1022.1,11111222 
WAVCIS,ioos:station:WAVCIS:CSI09:1,2012-02-09T01:00:00Z,29.1015,-89.9782,1022.27,11111222 
WAVCIS,ioos:station:WAVCIS:CSI09:1,2012-02-09T02:00:00Z,29.1015,-89.9782,1023.02,11111222 
WAVCIS,ioos:station:WAVCIS:CSI09:1,2012-02-09T03:00:00Z,29.1015,-89.9782,1023.29,11111222 
WAVCIS,ioos:station:WAVCIS:CSI09:1,2012-02-09T04:00:00Z,29.1015,-89.9782,1023.69,11111222 
WAVCIS,ioos:station:WAVCIS:CSI09:1,2012-02-09T05:00:00Z,29.1015,-89.9782,1023.57,11111222 
WAVCIS,ioos:station:WAVCIS:CSI09:1,2012-02-09T06:00:00Z,29.1015,-89.9782,1023.44,11111222 
WAVCIS,ioos:station:WAVCIS:CSI09:1,2012-02-09T07:00:00Z,29.1015,-89.9782,1022.99,11111222 
WAVCIS,ioos:station:WAVCIS:CSI09:1,2012-02-09T08:00:00Z,29.1015,-89.9782,1022.36,11111222 
WAVCIS,ioos:station:WAVCIS:CSI09:1,2012-02-09T09:00:00Z,29.1015,-89.9782,1022.33,11111222 
WAVCIS,ioos:station:WAVCIS:CSI09:1,2012-02-09T10:00:00Z,29.1015,-89.9782,1022.01,11111222 
WAVCIS,ioos:station:WAVCIS:CSI09:1,2012-02-09T11:00:00Z,29.1015,-89.9782,1022.6,11111222 
WAVCIS,ioos:station:WAVCIS:CSI09:1,2012-02-09T12:00:00Z,29.1015,-89.9782,1023.52,11111222 
WAVCIS,ioos:station:WAVCIS:CSI09:1,2012-02-09T13:00:00Z,29.1015,-89.9782,1023.35,11111222 
WAVCIS,ioos:station:WAVCIS:CSI09:1,2012-02-09T14:00:00Z,29.1015,-89.9782,1024.09,11111222 
WAVCIS,ioos:station:WAVCIS:CSI09:1,2012-02-09T15:00:00Z,29.1015,-89.9782,1024.76,11111222 
WAVCIS,ioos:station:WAVCIS:CSI09:1,2012-02-09T16:00:00Z,29.1015,-89.9782,1025.13,11111222 
WAVCIS,ioos:station:WAVCIS:CSI09:1,2012-02-09T17:00:00Z,29.1015,-89.9782,1024.66,11111222 
WAVCIS,ioos:station:WAVCIS:CSI09:1,2012-02-09T18:00:00Z,29.1015,-89.9782,1023.91,11111222 
WAVCIS,ioos:station:WAVCIS:CSI09:1,2012-02-09T19:00:00Z,29.1015,-89.9782,1022.59,11111222 
WAVCIS,ioos:station:WAVCIS:CSI09:1,2012-02-09T20:00:00Z,29.1015,-89.9782,1021.87,11111222 
WAVCIS,ioos:station:WAVCIS:CSI09:1,2012-02-09T21:00:00Z,29.1015,-89.9782,1021.43,11111222 
WAVCIS,ioos:station:WAVCIS:CSI09:1,2012-02-09T22:00:00Z,29.1015,-89.9782,1021.83,11111222 
WAVCIS,ioos:station:WAVCIS:CSI09:1,2012-02-09T23:00:00Z,29.1015,-89.9782,1021.45,11111222 
WAVCIS,ioos:station:WAVCIS:CSI09:1,2012-02-10T00:00:00Z,29.1015,-89.9782,1020.9,11111222 
WAVCIS,ioos:station:WAVCIS:CSI09:1,2012-02-10T01:00:00Z,29.1015,-89.9782,1021.41,11111222 
WAVCIS,ioos:station:WAVCIS:CSI09:1,2012-02-10T02:00:00Z,29.1015,-89.9782,1022.18,11111222 
WAVCIS,ioos:station:WAVCIS:CSI09:1,2012-02-10T03:00:00Z,29.1015,-89.9782,1022.34,11111222 
WAVCIS,ioos:station:WAVCIS:CSI09:1,2012-02-10T04:00:00Z,29.1015,-89.9782,1022.21,11111222 
WAVCIS,ioos:station:WAVCIS:CSI09:1,2012-02-10T05:00:00Z,29.1015,-89.9782,1021.88,11111222 
WAVCIS,ioos:station:WAVCIS:CSI09:1,2012-02-10T06:00:00Z,29.1015,-89.9782,1020.75,11111222 
WAVCIS,ioos:station:WAVCIS:CSI09:1,2012-02-10T07:00:00Z,29.1015,-89.9782,1020.83,11111222 
WAVCIS,ioos:station:WAVCIS:CSI09:1,2012-02-10T08:00:00Z,29.1015,-89.9782,1019.71,11111222 
WAVCIS,ioos:station:WAVCIS:CSI09:1,2012-02-10T09:00:00Z,29.1015,-89.9782,1019.91,11111222 
WAVCIS,ioos:station:WAVCIS:CSI09:1,2012-02-10T10:00:00Z,29.1015,-89.9782,1019.54,11111222 
WAVCIS,ioos:station:WAVCIS:CSI09:1,2012-02-10T11:00:00Z,29.1015,-89.9782,1018.91,11111222 
WAVCIS,ioos:station:WAVCIS:CSI09:1,2012-02-10T12:00:00Z,29.1015,-89.9782,1018.9,11111222 
WAVCIS,ioos:station:WAVCIS:CSI09:1,2012-02-10T13:00:00Z,29.1015,-89.9782,1018.71,11111222 
WAVCIS,ioos:station:WAVCIS:CSI09:1,2012-02-10T14:00:00Z,29.1015,-89.9782,1019.65,11111222 
WAVCIS,ioos:station:WAVCIS:CSI09:1,2012-02-10T15:00:00Z,29.1015,-89.9782,1019.2,11111222 
WAVCIS,ioos:station:WAVCIS:CSI09:1,2012-02-10T16:00:00Z,29.1015,-89.9782,1019.26,11111222 
WAVCIS,ioos:station:WAVCIS:CSI09:1,2012-02-10T17:00:00Z,29.1015,-89.9782,1018.02,11111222 
WAVCIS,ioos:station:WAVCIS:CSI09:1,2012-02-10T18:00:00Z,29.1015,-89.9782,1016.61,11111222 
WAVCIS,ioos:station:WAVCIS:CSI09:1,2012-02-10T19:00:00Z,29.1015,-89.9782,1015.16,11111222 
WAVCIS,ioos:station:WAVCIS:CSI09:1,2012-02-10T20:00:00Z,29.1015,-89.9782,1014.88,11111222 
WAVCIS,ioos:station:WAVCIS:CSI09:1,2012-02-10T21:00:00Z,29.1015,-89.9782,1014.39,11111222 
WAVCIS,ioos:station:WAVCIS:CSI09:1,2012-02-10T22:00:00Z,29.1015,-89.9782,1015.99,11111222 
WAVCIS,ioos:station:WAVCIS:CSI09:1,2012-02-10T23:00:00Z,29.1015,-89.9782,1015.38,11111222 
WAVCIS,ioos:station:WAVCIS:CSI09:1,2012-02-11T00:00:00Z,29.1015,-89.9782,1015.54,11111222 
WAVCIS,ioos:station:WAVCIS:CSI09:1,2012-02-11T01:00:00Z,29.1015,-89.9782,1016.34,11111222 
WAVCIS,ioos:station:WAVCIS:CSI09:1,2012-02-11T02:00:00Z,29.1015,-89.9782,1017.35,11111222 
WAVCIS,ioos:station:WAVCIS:CSI09:1,2012-02-11T03:00:00Z,29.1015,-89.9782,1018.25,11111222 
WAVCIS,ioos:station:WAVCIS:CSI09:1,2012-02-11T04:00:00Z,29.1015,-89.9782,1018.27,11111222 
WAVCIS,ioos:station:WAVCIS:CSI09:1,2012-02-11T05:00:00Z,29.1015,-89.9782,1018.68,11111222 
WAVCIS,ioos:station:WAVCIS:CSI09:1,2012-02-11T06:00:00Z,29.1015,-89.9782,1018.97,11111222 
WAVCIS,ioos:station:WAVCIS:CSI09:1,2012-02-11T07:00:00Z,29.1015,-89.9782,1019.4,11111222 
WAVCIS,ioos:station:WAVCIS:CSI09:1,2012-02-11T08:00:00Z,29.1015,-89.9782,1019.88,11111222 
WAVCIS,ioos:station:WAVCIS:CSI09:1,2012-02-11T09:00:00Z,29.1015,-89.9782,1019.08,11111222 
WAVCIS,ioos:station:WAVCIS:CSI09:1,2012-02-11T10:00:00Z,29.1015,-89.9782,1019.26,11111222 
WAVCIS,ioos:station:WAVCIS:CSI09:1,2012-02-11T11:00:00Z,29.1015,-89.9782,1020.4,11111222 
WAVCIS,ioos:station:WAVCIS:CSI09:1,2012-02-11T12:00:00Z,29.1015,-89.9782,1021.61,11111222 
WAVCIS,ioos:station:WAVCIS:CSI09:1,2012-02-11T13:00:00Z,29.1015,-89.9782,1022.25,11111222 
WAVCIS,ioos:station:WAVCIS:CSI09:1,2012-02-11T14:00:00Z,29.1015,-89.9782,1023.3,11111222 
WAVCIS,ioos:station:WAVCIS:CSI09:1,2012-02-11T15:00:00Z,29.1015,-89.9782,1024.01,11111222 
WAVCIS,ioos:station:WAVCIS:CSI09:1,2012-02-11T16:00:00Z,29.1015,-89.9782,1024.88,11111222 
WAVCIS,ioos:station:WAVCIS:CSI09:1,2012-02-11T17:00:00Z,29.1015,-89.9782,1024.84,11111222 
WAVCIS,ioos:station:WAVCIS:CSI09:1,2012-02-11T18:00:00Z,29.1015,-89.9782,1024.94,11111222 
WAVCIS,ioos:station:WAVCIS:CSI09:1,2012-02-11T19:00:00Z,29.1015,-89.9782,1024.39,11111222 
WAVCIS,ioos:station:WAVCIS:CSI09:1,2012-02-11T20:00:00Z,29.1015,-89.9782,1024.26,11111222 
WAVCIS,ioos:station:WAVCIS:CSI09:1,2012-02-11T21:00:00Z,29.1015,-89.9782,1023.8,11111222 
WAVCIS,ioos:station:WAVCIS:CSI09:1,2012-02-11T22:00:00Z,29.1015,-89.9782,1024.43,11111222 